CAPE
0 0 0 2 1 0 1 0 0 0 1 3 0 0 0 0 0 0 0 0 0 0 2 0 3 35 17 23 39 4 9 7 4 0 0 0 2 8
0 0 0 0 2 5 3 5 0 0 0 0 0 0 0 0 0 0 0 0 0 0 0 0 0 21 8 28 26 3 23 13 5 4 3 3 2 6
0 0 0 0 0 3 2 12 9 7 0 0 0 0 0 0 0 0 0 0 0 0 0 0 1 28 23 23 10 2 8 4 2 6 6 5 4 7
0 1 1 0 0 1 5 0 4 2 4 0 0 0 0 0 0 0 0 0 0 0 0 0 0 4 10 14 19 4 9 7 3 3 3 6 6 3
1 1 0 1 0 0 2 3 6 6 4 0 0 0 1 0 0 0 0 0 0 0 0 0 0 8 4 9 3 5 15 4 5 2 2 1 3 5
0 0 0 2 1 1 3 4 2 0 1 4 0 0 0 0 0 0 0 0 0 0 0 0 2 2 7 4 3 5 5 10 15 0 1 0 1 2
2 1 0 1 2 0 4 4 12 10 11 5 0 0 1 0 0 0 0 1 0 0 0 0 0 1 0 0 6 1 5 0 3 0 0 0 0 0
13 14 1 0 3 3 6 8 6 12 15 8 2 0 0 0 0 0 0 2 4 0 0 0 0 0 0 0 0 0 1 0 0 0 0 0 0 0
0 1 7 10 0 1 4 13 8 9 10 3 8 0 0 0 0 0 0 0 0 0 0 0 0 0 0 0 0 0 0 0 0 0 0 0 0 0
6 6 0 9 3 0 1 2 0 13 10 20 18 0 0 3 0 0 0 0 0 0 0 0 0 0 0 0 0 0 0 0 0 0 0 0 0 0
1 1 1 0 5 2 2 3 0 0 6 14 4 4 0 0 0 0 0 1 2 1 2 0 0 0 0 0 0 0 0 0 0 0 0 1 3 0
0 2 2 0 2 3 4 3 11 0 6 12 19 15 2 0 0 0 0 1 0 0 0 1 0 0 0 0 0 0 0 0 0 0 0 0 0 0
1 1 1 5 2 5 5 6 0 10 10 11 12 5 0 0 11 0 0 0 0 0 0 0 0 0 0 0 0 0 0 0 0 0 0 0 0 0
0 0 0 1 4 3 6 4 10 15 38 22 9 1 4 14 0 0 0 0 0 0 0 0 0 0 0 0 0 0 0 0 0 0 0 0 0 0
0 1 1 1 0 0 7 5 4 18 23 24 0 0 10 0 0 0 1 0 0 0 0 0 0 0 0 0 0 0 0 0 0 0 0 0 1 1
0 0 0 1 3 4 5 4 2 0 1 0 3 38 2 1 1 0 0 1 0 0 0 0 0 0 0 0 0 0 0 0 0 1 0 0 1 0
0 0 1 0 1 2 2 2 3 1 0 0 4 1 0 1 1 1 0 1 1 0 0 0 0 0 0 0 0 0 0 0 0 0 0 0 1 1
0 0 0 0 0 0 0 0 1 3 3 4 8 12 10 4 2 0 0 1 1 1 1 1 0 0 0 0 0 0 0 0 0 0 0 0 0 1
0 0 0 0 0 0 0 0 1 2 2 3 5 5 6 6 3 4 6 0 0 0 0 0 2 1 2 2 0 0 0 0 0 0 0 0 0 0
0 0 0 0 0 0 0 0 0 1 1 1 2 2 1 4 3 2 2 3 5 4 5 6 1 0 1 1 0 0 0 0 0 0 0 0 0 0
0 0 0 0 0 0 0 0 0 0 0 0 0 0 1 1 0 0 2 6 2 1 1 2 3 2 1 0 0 0 0 1 0 0 0 0 0 0
0 0 0 0 0 0 0 0 0 0 0 0 0 0 0 0 0 0 0 0 0 1 1 2 1 0 0 1 1 1 1 3 0 2 1 3 0 0
0 0 0 0 0 0 0 0 0 0 0 0 0 0 0 0 0 0 0 0 1 0 1 0 1 0 2 1 1 2 2 0 2 0 0 2 0 1
CIN
-0 -0 -0 -0 -0 -0 -0 -0 -0 -0 -0 -0 -0 -0 -0 -0 -0 -0 -0 -0 -0 -0 -11 -0 -2 -5 -11 -6 -3 -26 -8 -2 -8 -12 -1 -6 -2 -4
-0 -0 -0 -0 -0 -0 -0 -0 -0 -0 -0 -0 -0 -0 -0 -0 -0 -0 -0 -0 -0 -0 -0 -0 -0 -9 -21 -10 -9 -16 -10 -13 -3 -4 -3 -1 -1 -4
-0 -0 -0 -0 -0 -0 -0 -0 -0 -0 -0 -0 -0 -0 -0 -0 -0 -0 -0 -0 -0 -0 -0 -0 -6 -13 -22 -20 -15 -28 -17 -18 -6 -1 -4 -3 -2 -2
-0 -0 -0 -0 -0 -0 -0 -0 -1 -0 -0 -0 -0 -0 -0 -0 -0 -0 -0 -0 -0 -0 -0 -0 -0 -24 -20 -21 -24 -25 -25 -24 -4 -10 -1 -4 -3 -1
-0 -0 -0 -0 -0 -0 -0 -0 -0 -0 -0 -0 -0 -0 -0 -0 -0 -0 -0 -0 -0 -0 -0 -0 -0 -18 -22 -18 -23 -25 -27 -29 -21 -9 -8 -3 -2 -2
-0 -0 -0 -0 -0 -0 -0 -0 -0 -0 -0 -0 -0 -0 -0 -0 -0 -0 -0 -0 -0 -0 -0 -0 -16 -16 -21 -25 -22 -19 -23 -20 -24 -16 -8 -3 -3 -3
-0 -0 -0 -0 -0 -0 -0 -0 -0 -0 -0 -0 -0 -0 -0 -0 -0 -0 -0 -0 -0 -0 -0 -0 -8 -24 -0 -25 -27 -30 -19 -25 -12 -9 -0 -0 -0 -1
-0 -0 -0 -1 -0 -0 -0 -0 -0 -0 -0 -0 -0 -0 -0 -0 -0 -0 -0 -0 -0 -0 -0 -0 -0 -0 -0 -0 -0 -43 -19 -0 -0 -6 -0 -0 -0 -0
-1 -1 -0 -0 -0 -0 -0 -0 -0 -0 -0 -0 -0 -0 -0 -1 -0 -0 -0 -0 -0 -2 -0 -0 -0 -0 -0 -0 -0 -0 -0 -0 -0 -0 -0 -0 -0 -0
-0 -0 -0 -0 -1 -0 -0 -0 -0 -0 -0 -0 -0 -0 -0 -0 -0 -0 -0 -0 -0 -2 -0 -0 -0 -0 -0 -0 -0 -0 -0 -0 -0 -0 -0 -0 -0 -0
-0 -0 -0 -0 -0 -0 -0 -0 -0 -0 -0 -0 -0 -0 -0 -0 -0 -0 -0 -0 -0 -0 -0 -1 -1 -1 -0 -0 -0 -0 -0 -0 -0 -0 -0 -29 -39 -11
-0 -0 -0 -0 -0 -0 -0 -0 -0 -0 -0 -0 -0 -0 -0 -0 -0 -0 -0 -0 -0 -0 -1 -0 -0 -0 -0 -0 -0 -0 -0 -0 -0 -0 -0 -0 -0 -0
-0 -0 -0 -0 -0 -0 -0 -0 -0 -0 -0 -0 -0 -0 -0 -0 -0 -0 -0 -0 -0 -0 -0 -0 -0 -0 -0 -0 -0 -0 -0 -0 -0 -0 -0 -0 -0 -0
-0 -0 -0 -0 -0 -0 -0 -0 -0 -0 -0 -0 -0 -1 -0 -0 -0 -0 -0 -0 -0 -0 -0 -0 -0 -0 -0 -0 -0 -0 -0 -0 -0 -0 -0 -0 -0 -0
-0 -0 -0 -0 -0 -0 -0 -0 -0 -0 -0 -0 -0 -0 -0 -0 -0 -0 -0 -0 -0 -0 -0 -0 -0 -0 -0 -0 -0 -0 -0 -0 -0 -0 -0 -0 -0 -0
-0 -0 -0 -0 -0 -0 -0 -0 -0 -0 -0 -0 -0 -0 -5 -0 -0 -0 -0 -0 -0 -0 -0 -0 -0 -0 -0 -0 -0 -0 -0 -0 -0 -0 -0 -0 -0 -0
-0 -0 -0 -0 -0 -0 -0 -0 -0 -0 -0 -0 -0 -0 -0 -0 -0 -0 -0 -0 -0 -0 -0 -0 -0 -0 -0 -0 -0 -0 -0 -0 -0 -0 -0 -0 -0 -0
-0 -0 -0 -0 -0 -0 -0 -0 -0 -0 -0 -0 -0 -0 -0 -0 -0 -0 -0 -0 -0 -0 -0 -0 -0 -0 -0 -0 -0 -0 -0 -0 -0 -0 -0 -0 -0 -0
-0 -0 -0 -0 -0 -0 -0 -0 -0 -0 -0 -0 -0 -0 -0 -0 -0 -0 -0 -0 -0 -0 -0 -0 -0 -0 -0 -0 -0 -0 -0 -0 -0 -0 -0 -0 -0 -0
-0 -0 -0 -0 -0 -0 -0 -0 -0 -0 -0 -0 -0 -0 -0 -0 -0 -0 -0 -0 -0 -0 -0 -0 -0 -0 -0 -0 -0 -0 -0 -0 -0 -0 -0 -0 -0 -0
-0 -0 -0 -0 -0 -0 -0 -0 -0 -0 -0 -0 -0 -0 -0 -0 -0 -0 -0 -0 -0 -0 -0 -0 -0 -0 -0 -0 -0 -0 -0 -0 -0 -0 -0 -0 -0 -0
-0 -0 -0 -0 -0 -0 -0 -0 -0 -0 -0 -0 -0 -0 -0 -0 -0 -0 -0 -0 -0 -0 -0 -0 -0 -0 -0 -0 -0 -0 -0 -0 -0 -0 -0 -0 -0 -0
-0 -0 -0 -0 -0 -0 -0 -0 -0 -0 -0 -0 -0 -0 -0 -0 -0 -0 -0 -0 -0 -0 -0 -0 -0 -0 -0 -0 -0 -0 -0 -0 -0 -0 -0 -0 -0 -0
Wind_Speed
46 47 48 47 46 47 48 48 50 55 55 49 45 41 37 35 37 34 36 33 30 28 27 27 26 24 22 21 17 14 14 14 15 14 11 11 9 4
48 51 53 51 51 50 50 51 51 54 61 49 47 44 40 39 38 36 39 37 36 34 33 31 29 26 23 22 23 19 17 15 15 18 18 15 12 8
50 53 56 55 57 54 55 53 55 53 60 65 59 53 44 42 40 40 42 40 41 38 36 33 32 30 27 25 24 23 18 17 17 16 15 13 12 15
52 53 57 55 60 59 57 60 60 56 58 64 62 57 51 43 42 41 43 41 42 43 39 35 35 35 34 30 27 25 23 21 19 18 16 18 14 13
52 54 57 57 62 62 62 63 61 62 61 64 67 57 57 48 46 41 44 42 44 44 44 41 38 36 35 33 31 29 27 25 23 19 19 17 17 15
51 52 56 59 63 62 64 65 67 67 67 65 66 64 58 50 47 44 48 44 46 44 46 45 42 39 37 35 33 30 28 25 25 23 21 20 20 19
51 50 53 56 61 63 64 67 66 67 67 66 68 64 64 52 51 46 49 43 47 45 46 46 44 42 41 39 37 32 29 29 27 25 25 23 21 20
49 50 52 54 60 66 68 70 69 70 70 67 67 67 66 56 50 48 45 42 51 46 48 48 44 45 43 42 40 35 30 31 30 29 28 24 22 21
38 43 47 52 55 60 67 73 74 79 78 72 72 68 68 57 51 49 46 43 50 43 45 47 45 48 43 42 40 38 36 34 34 34 32 29 26 24
37 38 42 44 48 53 62 68 74 77 80 76 74 72 69 62 54 51 47 42 38 42 43 51 45 51 43 43 42 38 38 37 36 35 34 32 28 27
30 32 35 40 43 48 59 66 69 75 76 78 77 76 72 62 55 49 47 42 42 46 44 48 45 45 45 45 43 41 40 39 38 39 37 35 33 31
21 17 18 27 36 39 56 62 69 72 73 72 71 75 74 70 64 53 46 45 42 44 46 47 43 41 44 46 44 42 43 42 40 39 38 36 35 36
18 15 9 24 33 37 49 61 68 65 69 68 66 66 67 61 57 54 49 46 42 43 42 41 42 40 40 39 44 42 40 41 42 43 43 40 37 37
19 15 15 28 38 50 59 63 64 67 65 63 62 62 65 60 54 51 45 45 42 40 32 39 42 43 41 39 38 38 39 38 39 41 42 44 43 41
9 6 24 2 41 45 56 60 63 61 57 59 63 60 53 51 46 46 41 41 37 37 33 38 42 41 42 43 40 37 36 39 38 39 40 41 41 41
17 15 27 17 9 15 19 25 32 40 46 54 61 61 48 45 47 42 41 38 38 40 36 33 41 41 42 42 40 39 37 37 36 36 36 38 38 39
16 15 24 11 10 10 11 11 18 23 28 36 37 42 43 41 41 39 38 38 41 38 40 37 40 41 41 41 43 41 39 39 36 35 36 39 38 36
34 24 22 20 14 6 2 3 7 11 16 20 25 27 31 32 33 34 35 41 40 34 36 36 38 41 44 45 41 42 39 40 37 36 36 39 40 36
26 26 23 23 19 11 8 5 0 1 5 8 12 16 21 23 26 29 31 32 31 32 34 34 37 42 45 51 43 40 40 39 37 38 38 39 41 39
33 30 25 19 15 14 15 11 6 4 3 5 7 9 11 16 17 20 24 25 26 26 25 27 30 36 43 45 44 41 37 39 38 40 40 39 38 34
31 31 31 30 22 19 17 14 13 10 7 6 6 7 9 10 12 14 17 19 22 24 27 28 30 31 33 32 41 40 37 37 36 40 38 41 42 42
29 30 30 30 29 27 19 15 14 14 12 10 9 10 10 10 11 13 15 18 20 21 23 27 26 26 27 31 35 35 36 37 34 34 32 36 37 44
28 28 28 28 27 27 26 21 17 16 16 17 15 14 14 14 15 15 16 17 18 20 22 25 25 24 26 27 29 33 35 34 35 36 35 36 38 38
Wind_Direction
282 279 276 274 270 267 263 262 260 260 261 256 254 252 246 246 246 242 244 242 238 233 237 242 244 239 237 240 230 227 239 236 247 250 247 256 260 218
283 279 276 274 270 266 263 259 256 256 256 260 257 257 246 244 243 242 244 244 241 239 239 240 239 238 236 236 241 238 238 235 234 249 254 255 252 223
284 280 276 273 269 265 261 258 254 252 253 255 256 259 247 241 241 243 243 242 242 240 238 237 239 238 237 235 237 241 230 234 243 240 244 238 239 253
284 280 275 272 267 263 260 255 253 249 250 251 250 253 249 240 240 240 242 242 241 240 237 235 238 239 241 239 236 237 238 239 241 243 238 249 242 233
284 279 276 270 265 261 257 254 251 248 247 248 249 252 253 243 239 240 240 241 241 241 238 238 237 238 241 240 240 241 239 238 241 233 238 234 243 234
284 279 275 269 264 259 255 252 248 247 246 246 246 250 251 237 235 235 238 240 239 240 238 238 238 238 238 241 241 240 236 236 237 238 235 239 243 247
284 279 273 269 263 257 253 249 246 244 241 241 241 242 244 233 230 231 236 238 237 237 237 237 238 239 240 241 243 239 237 239 238 236 242 241 240 240
287 281 273 266 262 256 251 247 243 239 236 236 237 236 239 232 231 230 232 233 235 236 235 237 237 239 241 241 243 243 233 238 242 243 243 237 235 232
279 277 273 265 258 254 250 245 242 238 237 235 234 233 237 235 229 229 230 233 236 237 234 238 237 239 241 242 243 242 241 240 243 246 246 244 238 236
279 266 257 253 251 250 248 243 238 236 233 233 232 234 234 240 230 228 230 235 239 239 235 240 238 239 240 243 243 242 241 242 244 245 246 245 242 241
293 273 251 236 234 240 242 238 234 231 230 228 229 231 231 237 231 229 229 231 234 238 237 240 240 240 241 243 244 242 242 243 245 247 247 247 247 249
300 291 245 221 215 224 236 233 229 225 221 221 226 228 231 235 235 225 227 228 231 239 238 236 238 239 243 244 245 245 245 246 246 246 247 247 249 254
327 273 286 208 200 201 230 226 222 221 217 220 224 226 228 235 232 225 227 228 229 237 236 232 239 240 245 248 244 245 246 247 249 251 251 250 248 249
289 274 246 199 193 196 212 216 217 214 217 218 218 223 230 228 220 222 228 232 233 234 232 230 241 237 241 246 249 244 246 248 249 251 253 254 254 253
36 324 354 1 184 208 212 214 214 214 216 218 220 228 223 219 219 224 233 231 238 236 237 230 240 238 241 246 248 249 246 248 250 253 254 254 254 254
52 86 32 54 127 168 183 194 200 206 217 224 226 222 219 219 222 227 230 230 236 237 239 232 239 240 244 247 249 249 249 250 250 252 256 258 258 257
58 20 36 75 102 129 152 176 198 214 223 223 223 211 215 224 227 227 232 234 234 235 239 241 239 243 246 248 250 250 250 252 253 255 255 258 260 260
8 14 23 30 37 46 131 213 208 210 214 214 208 215 220 227 235 234 236 232 233 239 239 240 239 243 246 250 251 251 252 253 254 255 258 259 261 263
1 4 10 13 12 12 14 21 333 277 236 224 224 230 233 237 235 243 241 240 240 243 245 245 241 242 244 246 251 250 253 254 255 256 257 259 263 265
12 7 3 2 11 17 14 6 351 319 300 259 256 259 246 246 248 250 249 248 246 247 250 251 249 248 248 249 249 251 254 255 255 258 260 263 267 271
10 13 16 13 2 1 359 359 358 349 335 325 310 300 280 277 278 273 266 263 260 257 252 254 260 261 259 260 255 254 256 258 261 260 262 264 266 267
5 9 8 9 7 5 349 344 345 349 349 336 319 320 313 306 288 280 280 273 269 268 265 263 268 267 264 259 259 260 260 260 264 265 269 266 267 267
0 4 5 6 4 3 1 348 336 334 331 332 330 316 309 305 302 306 294 289 285 284 279 272 273 273 270 268 267 267 266 269 267 265 267 272 272 272